FW2527 Weather Reports


time (UTC)temp
C
wind
direction
speed
KPH
gust
KPH
rain 1hr
cm
rain 24hr
cm
rain mn
cm
humidity
%
barometer
mb
20260507041056 5 0.0 0.0 0.00 0.18 0.00 91 1013.6
20260507040544 5 0.0 0.0 0.00 0.18 0.00 91 1013.6
20260507040003 5 0.0 0.0 0.00 0.38 0.00 91 1013.6
20260507035553 5 0.0 0.0 0.00 0.38 0.00 90 1013.5
20260507035041 5 0.0 0.0 0.00 0.38 0.00 90 1013.2
20260507034501 5 0.0 0.0 0.00 0.38 0.00 90 1013.1
20260507034051 5 0.0 0.0 0.00 0.38 0.00 90 1013.1
20260507033544 5 0.0 0.0 0.00 0.38 0.00 91 1013.3
20260507033010 5 0.0 0.0 0.00 0.38 0.00 91 1013.3
20260507032559 5 0.0 0.0 0.00 0.38 0.00 90 1013.4
20260507032047 5 0.0 0.0 0.00 0.38 0.00 90 1013.3
20260507031506 5 0.0 0.0 0.00 0.38 0.00 90 1013.4
20260507031100 5 0.0 0.0 0.00 0.38 0.00 90 1013.4
20260507030545 5 0.0 0.0 0.00 0.38 0.00 90 1013.3
20260507030014 5 0.0 0.0 0.00 0.48 0.00 90 1013.3
20260507025502 6 0.0 0.0 0.00 0.48 0.00 90 1013.4
20260507025048 6 0.0 0.0 0.00 0.48 0.00 90 1013.4
20260507024507 6 0.0 0.0 0.00 0.48 0.00 90 1013.4
20260507024102 6 0.0 0.0 0.00 0.48 0.00 90 1013.5
20260507023549 6 0.0 0.0 0.00 0.48 0.00 90 1013.4
20260507023005 6 0.0 0.0 0.00 0.48 0.00 90 1013.4
20260507022555 6 0.0 0.0 0.00 0.48 0.00 90 1013.3
20260507022044 6 0.0 0.0 0.00 0.48 0.00 90 1013.3
20260507021511 6 0.0 0.0 0.00 0.48 0.00 90 1013.2
20260507021104 6 0.0 0.0 0.00 0.48 0.00 89 1013.4
20260507020550 6 0.0 0.0 0.00 0.48 0.00 89 1013.3
20260507020009 6 0.0 0.0 0.00 0.56 0.00 89 1013.2
20260507015601 6 0.0 0.0 0.00 0.56 0.00 89 1013.2
20260507015050 6 0.0 0.0 0.00 0.56 0.00 89 1013.1
20260507014506 6 0.0 0.0 0.00 0.56 0.00 89 1013.3
20260507014057 6 0.0 0.0 0.00 0.56 0.00 89 1013.2
20260507013543 6 0.0 0.0 0.00 0.56 0.00 89 1013.2
20260507013002 6 0.0 0.0 0.00 0.56 0.00 89 1013.2
20260507012554 6 0.0 0.0 0.00 0.56 0.00 89 1013.2
20260507012040 6 0.0 0.0 0.00 0.56 0.00 88 1013.1
20260507011509 7 0.0 0.0 0.00 0.56 0.00 88 1013.0
20260507011100 7 0.0 0.0 0.00 0.56 0.00 88 1013.0
20260507010550 7 0.0 0.0 0.00 0.56 0.00 88 1013.0
20260507010008 7 0.0 0.0 0.00 0.58 0.00 88 1012.9
20260507005557 7 0.0 0.0 0.00 0.58 0.00 88 1012.9
20260507005044 7 0.0 0.0 0.00 0.58 0.00 88 1012.8
20260507004513 7 0.0 0.0 0.00 0.58 0.00 87 1012.8
20260507004002 7 0.0 0.0 0.00 0.58 0.00 87 1012.8
20260507003552 7 0.0 0.0 0.00 0.58 0.00 87 1012.9
20260507003010 7 0.0 0.0 0.00 0.58 0.00 87 1012.7
20260507002601 7 0.0 0.0 0.00 0.58 0.00 87 1012.6
20260507002050 7 0.0 0.0 0.00 0.58 0.00 87 1012.6
20260507001513 7 0.0 0.0 0.00 0.58 0.00 87 1012.6
20260507001103 8 0.0 0.0 0.00 0.58 0.00 87 1012.6
20260507000547 8 0.0 0.0 0.00 0.58 0.00 87 1012.5
20260507000006 8 0.0 0.0 0.00 0.61 0.00 87 1012.4
20260506235556 8 0.0 0.0 0.00 0.61 0.00 87 1012.4
20260506235043 8 0.0 0.0 0.00 0.61 0.00 87 1012.5
20260506234504 8 0.0 0.0 0.00 0.61 0.00 87 1012.5
20260506234055 8 0.0 0.0 0.00 0.61 0.00 87 1012.5
20260506233542 8 0.0 0.0 0.00 0.61 0.00 87 1012.5
20260506233001 8 0.0 0.0 0.00 0.61 0.00 88 1012.4
20260506232551 8 0.0 0.0 0.00 0.61 0.00 88 1012.3
20260506232040 8 0.0 0.0 0.00 0.61 0.00 88 1012.4
20260506231601 8 0.0 0.0 0.00 0.61 0.00 88 1012.4
20260506231052 8 0.0 0.0 0.00 0.61 0.00 88 1012.4
20260506230539 8 0.0 0.0 0.00 0.61 0.00 87 1012.4
20260506230005 8 0.0 0.0 0.00 0.61 0.00 87 1012.3
20260506225555 8 0.0 0.0 0.00 0.61 0.00 87 1012.3
20260506225044 8 0.0 0.0 0.00 0.61 0.00 87 1012.3
20260506224503 8 0.0 0.0 0.00 0.61 0.00 87 1012.2
20260506224055 8 0.0 0.0 0.00 0.61 0.00 87 1012.3
20260506223542 8 0.0 0.0 0.00 0.61 0.00 87 1012.3
20260506223010 8 0.0 0.0 0.00 0.61 0.00 87 1012.2
20260506222601 8 0.0 0.0 0.00 0.61 0.00 87 1012.3
20260506222048 8 0.0 0.0 0.00 0.61 0.00 86 1012.3
20260506221508 8 0.0 0.0 0.00 0.61 0.00 86 1012.2
20260506221101 8 0.0 0.0 0.00 0.61 0.00 86 1012.2
20260506220546 8 0.0 0.0 0.00 0.61 0.00 86 1012.3
20260506220006 8 0.0 0.0 0.00 0.61 0.61 86 1012.3
20260506215558 8 0.0 0.0 0.00 0.61 0.61 86 1012.2
20260506215044 8 0.0 0.0 0.00 0.61 0.61 86 1012.2
20260506214503 8 0.0 0.0 0.00 0.61 0.61 86 1012.2
20260506214054 8 0.0 0.0 0.00 0.61 0.61 86 1012.2
20260506213541 8 0.0 0.0 0.00 0.61 0.61 86 1012.2
20260506213004 8 0.0 0.0 0.00 0.61 0.61 86 1012.1
20260506212555 8 0.0 0.0 0.00 0.61 0.61 87 1012.1
20260506212044 8 0.0 0.0 0.00 0.61 0.61 87 1012.0
20260506211602 8 0.0 0.0 0.00 0.61 0.61 87 1012.1
20260506211050 8 0.0 0.0 0.00 0.61 0.61 87 1012.0
20260506210542 8 0.0 0.0 0.00 0.61 0.61 88 1012.1
20260506205548 8 0.0 0.0 0.00 0.61 0.61 88 1012.0
20260506205038 8 0.0 0.0 0.00 0.61 0.61 88 1011.9
20260506204506 8 0.0 0.0 0.00 0.61 0.61 88 1012.0
20260506204057 8 0.0 0.0 0.00 0.61 0.61 88 1012.0
20260506203544 8 0.0 0.0 0.00 0.61 0.61 88 1011.8
20260506203003 8 0.0 0.0 0.00 0.61 0.61 88 1011.9
20260506202552 8 0.0 0.0 0.00 0.61 0.61 88 1011.7
20260506202040 8 0.0 0.0 0.00 0.61 0.61 88 1011.5
20260506201630 8 0.0 0.0 0.00 0.61 0.61 87 1011.7
20260506201049 8 0.0 0.0 0.00 0.61 0.61 87 1011.7
20260506200539 9 0.0 0.0 0.00 0.61 0.61 87 1011.6
20260506200101 9 0.0 0.0 0.00 0.61 0.61 87 1011.5
20260506195549 9 0.0 0.0 0.00 0.61 0.61 87 1011.5
20260506195041 9 0.0 0.0 0.00 0.61 0.61 87 1011.4
20260506194505 9 0.0 0.0 0.00 0.61 0.61 86 1011.3
20260506194056 9 0.0 0.0 0.00 0.61 0.61 86 1011.3
20260506193542 9 0.0 0.0 0.00 0.61 0.61 86 1011.1
20260506193013 9 0.0 0.0 0.00 0.61 0.61 86 1011.0
20260506192601 9 0.0 0.0 0.00 0.61 0.61 85 1011.1
20260506192049 9 0.0 0.0 0.00 0.61 0.61 85 1010.9
20260506191510 9 0.0 0.0 0.00 0.61 0.61 85 1010.9
20260506191059 9 0.0 0.0 0.00 0.61 0.61 85 1010.9
20260506190547 9 0.0 0.0 0.00 0.61 0.61 85 1010.8
20260506190003 9 0.0 0.0 0.00 0.61 0.61 85 1010.7
20260506185553 9 0.0 0.0 0.00 0.61 0.61 85 1010.7
20260506185041 9 0.0 0.0 0.00 0.61 0.61 84 1010.6
20260506184606 9 0.0 0.0 0.00 0.61 0.61 84 1010.6
20260506184051 10 0.0 0.0 0.00 0.61 0.61 84 1010.6
20260506183542 10 0.0 0.0 0.00 0.61 0.61 83 1010.6
20260506183006 10 0.0 0.0 0.00 0.61 0.61 83 1010.4
20260506182556 10 0.0 0.0 0.00 0.61 0.61 83 1010.5
20260506182044 10 0.0 0.0 0.00 0.61 0.61 83 1010.6
20260506181505 10 0.0 0.0 0.00 0.61 0.61 83 1010.5
20260506181056 10 0.0 0.0 0.00 0.61 0.61 83 1010.4
20260506180544 10 0.0 0.0 0.00 0.61 0.61 83 1010.3
20260506180003 10 0.0 0.0 0.00 0.61 0.61 82 1010.1
20260506175553 10 0.0 0.0 0.00 0.61 0.61 83 1010.1
20260506175041 10 0.0 0.0 0.00 0.61 0.61 83 1010.0
20260506174509 10 0.0 0.0 0.00 0.61 0.61 83 1009.9
20260506174100 10 0.0 0.0 0.00 0.61 0.61 82 1009.9
20260506173549 10 0.0 0.0 0.00 0.61 0.61 83 1009.8
20260506173007 10 0.0 0.0 0.00 0.61 0.61 83 1009.8
20260506172557 10 0.0 0.0 0.00 0.61 0.61 83 1009.7
20260506172046 10 0.0 0.0 0.00 0.61 0.61 84 1009.7
20260506171516 10 0.0 0.0 0.00 0.61 0.61 84 1009.6
20260506171002 10 0.0 0.0 0.00 0.61 0.61 84 1009.6
20260506170553 10 0.0 0.0 0.00 0.61 0.61 85 1009.6
20260506170013 10 0.0 0.0 0.00 0.61 0.61 85 1009.4
20260506165602 10 0.0 0.0 0.00 0.61 0.61 85 1009.6
20260506165050 10 0.0 0.0 0.00 0.61 0.61 85 1009.6
20260506164519 10 0.0 0.0 0.00 0.61 0.61 85 1009.4
20260506164014 10 0.0 0.0 0.00 0.61 0.61 85 1009.5
20260506163558 10 0.0 0.0 0.00 0.61 0.61 85 1009.4
20260506163030 10 0.0 0.0 0.00 0.61 0.61 85 1009.4
20260506162506 10 0.0 0.0 0.00 0.61 0.61 85 1009.4
20260506162056 9 0.0 0.0 0.00 0.61 0.61 85 1009.3
20260506161523 9 0.0 0.0 0.00 0.61 0.61 86 1009.4
20260506161011 9 0.0 0.0 0.00 0.61 0.61 87 1009.4
20260506160601 9 0.0 0.0 0.00 0.61 0.61 87 1009.4
20260506160019 9 0.0 0.0 0.00 0.61 0.61 87 1009.3
20260506155506 9 0.0 0.0 0.00 0.61 0.61 88 1009.3
20260506155057 9 0.0 0.0 0.00 0.61 0.61 88 1009.4
20260506154536 9 0.0 0.0 0.00 0.61 0.61 89 1009.3
20260506154019 9 0.0 0.0 0.00 0.61 0.61 89 1009.3
20260506153503 9 0.0 0.0 0.00 0.61 0.61 89 1009.3
20260506153023 9 0.0 0.0 0.00 0.61 0.61 89 1009.2
20260506152512 9 0.0 0.0 0.00 0.61 0.61 89 1009.3
20260506152107 9 0.0 0.0 0.00 0.61 0.61 89 1009.3
20260506151521 9 0.0 0.0 0.00 0.61 0.61 89 1009.2
20260506151010 9 0.0 0.0 0.00 0.61 0.61 89 1009.4
20260506150604 9 0.0 0.0 0.00 0.61 0.61 89 1009.2
20260506150032 9 0.0 0.0 0.00 0.61 0.61 89 1009.2
20260506145518 9 0.0 0.0 0.00 0.61 0.61 89 1009.1
20260506145005 9 0.0 0.0 0.00 0.61 0.61 89 1009.1
20260506144527 9 0.0 0.0 0.00 0.61 0.61 89 1009.1
20260506144015 9 0.0 0.0 0.00 0.61 0.61 90 1009.1
20260506143503 9 0.0 0.0 0.00 0.61 0.61 90 1009.0
20260506143035 9 0.0 0.0 0.00 0.61 0.61 90 1009.0
20260506142522 9 0.0 0.0 0.00 0.61 0.61 90 1009.1
20260506142011 9 0.0 0.0 0.00 0.61 0.61 90 1009.0
20260506141100 9 0.0 0.0 0.00 0.61 0.61 91 1009.1
20260506140547 9 0.0 0.0 0.00 0.61 0.61 91 1009.0
20260506140007 9 0.0 0.0 0.00 0.61 0.61 91 1009.1
20260506135556 8 0.0 0.0 0.00 0.61 0.61 91 1009.0
20260506135044 8 0.0 0.0 0.00 0.61 0.61 91 1009.1
20260506134514 8 0.0 0.0 0.03 0.61 0.61 91 1008.9
20260506134002 8 0.0 0.0 0.03 0.61 0.61 91 1009.0
20260506133552 8 0.0 0.0 0.03 0.61 0.61 91 1009.0
20260506133011 8 0.0 0.0 0.03 0.61 0.61 91 1009.0
20260506132601 8 0.0 0.0 0.03 0.61 0.61 92 1008.8
20260506132051 8 0.0 0.0 0.03 0.61 0.61 92 1008.8
20260506131513 8 0.0 0.0 0.03 0.61 0.61 92 1008.7
20260506131100 8 0.0 0.0 0.03 0.61 0.61 92 1008.6
20260506130548 8 0.0 0.0 0.03 0.61 0.61 92 1008.6
20260506130007 8 0.0 0.0 0.05 0.61 0.61 92 1008.7
20260506125556 8 0.0 0.0 0.05 0.61 0.61 92 1008.7
20260506125045 8 0.0 0.0 0.05 0.61 0.61 92 1008.5
20260506124505 8 0.0 0.0 0.03 0.58 0.58 92 1008.6
20260506124055 8 0.0 0.0 0.03 0.58 0.58 92 1008.6
20260506123546 8 0.0 0.0 0.03 0.58 0.58 92 1008.6
20260506123004 8 0.0 0.0 0.03 0.58 0.58 92 1008.6
20260506122554 8 0.0 0.0 0.03 0.58 0.58 92 1008.4
20260506122042 8 0.0 0.0 0.03 0.58 0.58 92 1008.3
20260506121501 8 0.0 0.0 0.03 0.58 0.58 92 1008.2
20260506121052 8 0.0 0.0 0.03 0.58 0.58 92 1008.2
20260506120540 8 0.0 0.0 0.03 0.58 0.58 93 1008.2
20260506120008 8 0.0 0.0 0.00 0.56 0.56 93 1008.1
20260506115600 8 0.0 0.0 0.00 0.56 0.56 92 1008.2
20260506115046 8 0.0 0.0 0.00 0.56 0.56 93 1008.0
20260506114508 8 0.0 0.0 0.00 0.56 0.56 92 1008.0
20260506114057 8 0.0 0.0 0.00 0.56 0.56 93 1008.1
20260506113545 8 0.0 0.0 0.00 0.56 0.56 93 1008.1
20260506113017 8 0.0 0.0 0.03 0.56 0.56 92 1008.1
20260506112503 8 0.0 0.0 0.03 0.56 0.56 93 1008.1
20260506112052 8 0.0 0.0 0.03 0.56 0.56 93 1008.1
20260506111512 8 0.0 0.0 0.03 0.56 0.56 93 1008.1
20260506111102 8 0.0 0.0 0.03 0.56 0.56 93 1008.0
20260506110549 8 0.0 0.0 0.03 0.56 0.56 93 1007.9
20260506110009 8 0.0 0.0 0.03 0.56 0.56 93 1008.0
20260506105603 8 0.0 0.0 0.03 0.56 0.56 93 1007.9
20260506105047 8 0.0 0.0 0.03 0.56 0.56 93 1008.0
20260506104505 8 0.0 0.0 0.03 0.56 0.56 93 1007.9
20260506104056 8 0.0 0.0 0.03 0.56 0.56 93 1007.9
20260506103547 8 0.0 0.0 0.05 0.56 0.56 93 1007.8
20260506103059 8 0.0 0.0 0.03 0.53 0.53 93 1007.8
20260506102547 8 0.0 0.0 0.03 0.53 0.53 93 1007.7
20260506102038 8 0.0 0.0 0.03 0.53 0.53 93 1007.8
20260506101558 8 0.0 0.0 0.03 0.53 0.53 93 1007.7
20260506101047 8 0.0 0.0 0.03 0.53 0.53 93 1007.6
20260506100537 8 0.0 0.0 0.03 0.53 0.53 93 1007.4
20260506100041 8 0.0 0.0 0.03 0.53 0.53 93 1007.5
20260506095503 8 0.0 0.0 0.03 0.53 0.53 93 1007.5
20260506095054 8 0.0 0.0 0.03 0.53 0.53 93 1007.4
20260506094513 8 0.0 0.0 0.03 0.53 0.53 93 1007.3
20260506094001 8 0.0 0.0 0.05 0.53 0.53 93 1007.3
20260506093551 8 0.0 0.0 0.03 0.51 0.51 93 1007.3
20260506093013 8 0.0 0.0 0.03 0.51 0.51 93 1007.2
20260506092601 8 0.0 0.0 0.03 0.51 0.51 93 1007.2
20260506092049 8 0.0 0.0 0.03 0.51 0.51 93 1007.2
20260506091510 8 0.0 0.0 0.03 0.51 0.51 93 1007.2
20260506091101 8 0.0 0.0 0.03 0.51 0.51 93 1007.1
20260506090550 8 0.0 0.0 0.03 0.51 0.51 93 1007.0
20260506090019 8 0.0 0.0 0.03 0.51 0.51 94 1007.1
20260506085507 8 0.0 0.0 0.05 0.51 0.51 94 1007.2
20260506085057 8 0.0 0.0 0.05 0.51 0.51 93 1007.1
20260506084517 8 0.0 0.0 0.05 0.51 0.51 94 1007.1
20260506084005 8 0.0 0.0 0.03 0.51 0.51 94 1007.2
20260506083555 8 0.0 0.0 0.03 0.51 0.51 94 1007.1
20260506083014 8 0.0 0.0 0.03 0.51 0.51 94 1007.0
20260506082506 8 0.0 0.0 0.03 0.51 0.51 94 1007.1
20260506082052 8 0.0 0.0 0.03 0.51 0.51 94 1007.2
20260506081511 8 0.0 0.0 0.03 0.51 0.51 94 1007.2
20260506081001 8 0.0 0.0 0.03 0.51 0.51 94 1007.1
20260506080551 8 0.0 0.0 0.03 0.51 0.51 94 1007.1
20260506073013 8 0.0 0.0 0.00 0.94 0.48 94 1007.0
20260506072501 8 0.0 0.0 0.00 0.94 0.48 93 1006.9
20260506072054 8 0.0 0.0 0.00 0.94 0.48 94 1007.0
20260506071510 8 0.0 0.0 0.03 0.94 0.48 94 1006.9
20260506071101 8 0.0 0.0 0.03 0.94 0.48 94 1006.8
20260506070549 8 0.0 0.0 0.03 0.94 0.48 94 1006.8
20260506062041 8 0.0 0.0 0.05 0.97 0.48 94 1006.8
20260506061501 8 0.0 0.0 0.03 0.94 0.46 94 1006.8
20260506061051 8 0.0 0.0 0.03 0.94 0.46 94 1006.8
20260506060539 8 0.0 0.0 0.03 0.94 0.46 94 1006.7
20260506051051 8 0.0 0.0 0.03 0.91 0.43 94 1006.5
20260506050539 8 0.0 0.0 0.03 0.91 0.43 93 1006.5
20260506050104 8 0.0 0.0 0.03 0.91 0.43 94 1006.5
20260506045040 8 0.0 0.0 0.05 0.94 0.43 93 1006.5
20260506044506 8 0.0 0.0 0.05 0.94 0.43 93 1006.6
20260506044056 8 0.0 0.0 0.05 0.94 0.43 93 1006.6
20260506043544 8 0.0 0.0 0.15 0.94 0.43 93 1006.5
20260506043005 8 0.0 0.0 0.18 0.94 0.43 93 1006.6
20260506042555 8 0.0 0.0 0.18 0.94 0.43 93 1006.6
20260506042044 8 0.0 0.0 0.15 0.91 0.43 93 1006.5
20260506041607 8 0.0 0.0 0.18 0.91 0.43 93 1006.5